Douglas, WY

9:39 AM MDT on May 25, 2018 (GMT -0600)
Converse County

Weather History for KDGW - October, 2013

Change the Weather History Date:

Wednesday, October 23, 2013

  Actual Average Record
Temperature  
Mean Temperature 47 °F 43 °F  
Max Temperature 61 °F 59 °F 83 °F (2003)
Min Temperature 32 °F 28 °F 19 °F (2008)
Degree Days  
Heating Degree Days 18 22  
Month to date heating degree days 496 413  
Since 1 July heating degree days 634 682  
Cooling Degree Days 0 0  
Month to date cooling degree days 0 0  
Year to date cooling degree days 739 486  
Moisture  
Dew Point 33 °F    
Average Humidity 66    
Maximum Humidity 96    
Minimum Humidity 36    
Precipitation  
Precipitation 0.00 in 0.03 in 0.18 in (2010)
Month to date precipitation 0.01 0.89  
Year to date precipitation 7.27 12.17  
Sea Level Pressure  
Sea Level Pressure 30.17 in    
Wind  
Wind Speed 6 mph (North)    
Max Wind Speed 14 mph    
Max Gust Speed 18 mph    
Visibility 10 miles    
Events      
T = Trace of Precipitation, MM = Missing Value Source: NWS Daily Summary

Daily Weather History Graph

Daily Weather History Graph

Search for Another Location

Airport or City:

Astronomy

Oct. 23, 2013 Rise Set
Actual Time 7:24 AM MDT 6:06 PM MDT
Civil Twilight 6:55 AM MDT 6:35 PM MDT
Nautical Twilight 6:22 AM MDT 7:07 PM MDT
Astronomical Twilight 5:50 AM MDT 7:40 PM MDT
Moon 9:36 PM MDT (10/23) 11:47 AM MDT (10/23)
Length of Visible Light 11h 39m
Length of Day
10h 41m
Waning Gibbous, 79% of the Moon is Illuminated
Oct 23
Waning Gibbous
Oct 26
Last Quarter
Nov 3
New
Nov 9
First Quarter
Nov 17
Full

Hourly Weather History & Observations

Time (MDT) Temp. Windchill Dew Point Humidity Pressure Visibility Wind Dir Wind Speed Gust Speed Precip Events Conditions
12:53 AM 34.0 °F 31.0 °F 32.0 °F 92% 30.12 in 10.0 mi NW 3.5 mph - N/A   Clear
1:53 AM 34.0 °F 28.8 °F 30.9 °F 89% 30.11 in 10.0 mi North 5.8 mph - N/A   Clear
2:53 AM 35.1 °F 28.6 °F 32.0 °F 89% 30.09 in 10.0 mi NNW 8.1 mph - N/A   Clear
3:53 AM 34.0 °F 28.0 °F 30.9 °F 89% 30.09 in 10.0 mi NW 6.9 mph - N/A   Clear
4:53 AM 33.1 °F 27.7 °F 30.0 °F 89% 30.11 in 10.0 mi NW 5.8 mph - N/A   Clear
5:53 AM 35.1 °F 27.9 °F 30.9 °F 85% 30.13 in 10.0 mi North 9.2 mph - N/A   Clear
6:53 AM 35.1 °F 27.4 °F 30.9 °F 85% 30.15 in 10.0 mi NNW 10.4 mph - N/A   Clear
7:53 AM 36.0 °F 29.6 °F 30.9 °F 82% 30.18 in 10.0 mi NNW 8.1 mph - N/A   Clear
8:53 AM 39.0 °F 33.4 °F 33.1 °F 79% 30.21 in 10.0 mi North 8.1 mph - N/A   Clear
9:53 AM 46.0 °F 43.1 °F 35.1 °F 66% 30.21 in 10.0 mi NNW 5.8 mph - N/A   Clear
10:53 AM 52.0 °F - 36.0 °F 54% 30.19 in 10.0 mi NNE 4.6 mph - N/A   Clear
11:53 AM 57.0 °F - 35.1 °F 44% 30.17 in 10.0 mi NW 9.2 mph - N/A   Clear
12:53 PM 59.0 °F - 34.0 °F 39% 30.15 in 10.0 mi NW 12.7 mph 17.3 mph N/A   Clear
1:53 PM 59.0 °F - 33.1 °F 38% 30.14 in 10.0 mi North 6.9 mph 17.3 mph N/A   Clear
2:53 PM 60.1 °F - 34.0 °F 38% 30.13 in 10.0 mi North 11.5 mph - N/A   Clear
3:53 PM 57.9 °F - 35.1 °F 42% 30.15 in 10.0 mi NNE 13.8 mph - N/A   Clear
4:53 PM 57.0 °F - 34.0 °F 42% 30.15 in 10.0 mi North 9.2 mph - N/A   Clear
5:53 PM 53.1 °F - 35.1 °F 50% 30.17 in 10.0 mi NNE 6.9 mph - N/A   Clear
6:53 PM 46.0 °F - 36.0 °F 68% 30.21 in 10.0 mi Calm Calm - N/A   Clear
7:53 PM 45.0 °F 42.6 °F 35.1 °F 68% 30.23 in 10.0 mi NE 4.6 mph - N/A   Clear
8:53 PM 39.9 °F - 34.0 °F 79% 30.25 in 10.0 mi Calm Calm - N/A   Clear
9:53 PM 37.9 °F 34.4 °F 34.0 °F 86% 30.26 in 10.0 mi East 4.6 mph - N/A   Clear
10:53 PM 39.0 °F - 34.0 °F 82% 30.25 in 10.0 mi Calm Calm - N/A   Clear
11:53 PM 37.0 °F - 33.1 °F 86% 30.24 in 10.0 mi Calm Calm - N/A   Partly Cloudy